DW0967 Weather Reports


Display with metric or nautical units.
time (UTC)temp
F
wind
direction
speed
MPH
gust
MPH
rain 1hr
in
rain 24hr
in
rain mn
in
humidity
%
barometer
mb
20230129153205 6 5 2.0 9.0 0.00 0.00 0.00 86 1013.0
20230129151705 6 43 3.0 5.0 0.00 0.00 0.00 86 1012.8
20230129151205 6 18 2.0 3.0 0.00 0.00 0.00 86 1012.4
20230129150705 6 31 3.0 6.0 0.00 0.00 0.00 86 1012.4
20230129150205 6 31 3.0 7.0 0.00 0.00 0.00 86 1012.4
20230129144704 6 24 4.0 7.0 0.00 0.00 0.00 86 1012.4
20230129141204 6 20 5.0 10.0 0.00 0.00 0.00 86 1011.8
20230129134705 7 7 5.0 6.0 0.00 0.00 0.00 86 1011.8
20230129133706 7 4 5.0 9.0 0.00 0.00 0.00 86 1011.8
20230129131209 8 22 5.0 7.0 0.00 0.00 0.00 87 1011.7
20230129123205 8 1 3.0 6.0 0.00 0.00 0.00 87 1012.3
20230129121206 8 31 2.0 3.0 0.00 0.00 0.00 87 1012.3
20230129120205 8 17 3.0 6.0 0.00 0.00 0.00 87 1012.3
20230129114705 8 54 3.0 6.0 0.00 0.00 0.00 87 1012.3
20230129114204 9 45 5.0 7.0 0.00 0.00 0.00 87 1012.0
20230129113704 9 56 3.0 6.0 0.00 0.00 0.00 87 1012.0
20230129111731 9 55 3.0 3.0 0.00 0.00 0.00 87 1012.0
20230129110705 9 82 1.0 3.0 0.00 0.00 0.00 87 1012.0
20230129104204 9 49 3.0 3.0 0.00 0.00 0.00 87 1012.5
20230129101704 9 44 3.0 5.0 0.00 0.00 0.00 87 1012.6
20230129101204 9 51 3.0 5.0 0.00 0.00 0.00 87 1012.6
20230129093205 10 47 3.0 5.0 0.00 0.00 0.00 87 1012.6
20230129091705 10 40 4.0 6.0 0.00 0.00 0.00 87 1012.6
20230129090705 10 49 3.0 6.0 0.00 0.00 0.00 87 1012.6
20230129084704 10 47 2.0 5.0 0.00 0.00 0.00 87 1013.0
20230129084204 10 45 2.0 5.0 0.00 0.00 0.00 87 1013.0
20230129083705 10 66 2.0 3.0 0.00 0.00 0.00 87 1013.0
20230129083205 10 87 2.0 3.0 0.00 0.00 0.00 87 1013.0
20230129081705 10 91 2.0 3.0 0.00 0.00 0.00 87 1012.9
20230129081204 10 92 2.0 3.0 0.00 0.00 0.00 87 1013.2
20230129074215 10 95 2.0 3.0 0.00 0.00 0.00 87 1013.3
20230129073216 11 86 2.0 3.0 0.00 0.00 0.00 87 1013.2
20230129070715 11 82 1.0 3.0 0.00 0.00 0.00 88 1014.1
20230129063716 12 82 2.0 3.0 0.00 0.00 0.00 88 1014.1
20230129063215 12 88 2.0 5.0 0.00 0.00 0.00 88 1014.2
20230129061715 12 87 3.0 6.0 0.00 0.00 0.00 88 1014.2
20230129054716 12 76 4.0 6.0 0.00 0.00 0.00 88 1014.9
20230129054215 12 78 4.0 6.0 0.00 0.00 0.00 88 1014.9
20230129053715 12 72 5.0 6.0 0.00 0.00 0.00 88 1014.9
20230129051215 13 50 6.0 10.0 0.00 0.00 0.00 88 1014.7
20230129050715 14 44 5.0 8.0 0.00 0.00 0.00 88 1014.7
20230129050215 14 51 4.0 7.0 0.00 0.00 0.00 88 1014.7
20230129044216 12 171 2.0 3.0 0.00 0.00 0.00 88 1014.0
20230129043715 12 211 2.0 3.0 0.00 0.00 0.00 88 1014.0
20230129043215 12 214 2.0 3.0 0.00 0.00 0.00 88 1014.0
20230129034715 14 158 3.0 6.0 0.00 0.00 0.00 89 1014.0
20230129034215 14 156 3.0 6.0 0.00 0.00 0.00 89 1014.0
20230129033216 15 213 2.0 15.0 0.00 0.00 0.00 89 1014.0
20230129031715 18 54 9.0 14.0 0.00 0.00 0.00 89 1013.1
20230129030715 18 48 9.0 13.0 0.00 0.00 0.00 89 1013.1
20230129030215 19 48 8.0 15.0 0.00 0.00 0.00 89 1013.1
20230129021715 21 36 6.0 10.0 0.00 0.00 0.00 89 1012.0
20230129020716 22 61 5.0 9.0 0.00 0.00 0.00 89 1011.7
20230129020215 22 66 5.0 7.0 0.00 0.00 0.00 89 1012.0
20230129014715 22 84 3.0 3.0 0.00 0.00 0.00 89 1010.9
20230129013215 22 91 3.0 10.0 0.00 0.00 0.00 88 1010.9
20230129011215 23 49 4.0 6.0 0.00 0.00 0.00 88 1010.4
20230129004715 23 78 3.0 6.0 0.00 0.00 0.00 87 1010.4
20230129004215 23 58 5.0 8.0 0.00 0.00 0.00 87 1009.2
20230129003715 24 62 4.0 7.0 0.00 0.00 0.00 87 1009.2
20230129003216 24 85 6.0 10.0 0.00 0.00 0.00 87 1009.2
20230129001715 25 83 4.0 7.0 0.00 0.00 0.00 86 1009.2
20230129001215 25 81 5.0 8.0 0.00 0.00 0.00 86 1009.2
20230129000715 25 91 4.0 7.0 0.00 0.00 0.00 86 1008.9
20230128234715 26 96 4.0 7.0 0.00 0.00 0.00 84 1006.6
20230128234215 26 69 5.0 7.0 0.00 0.00 0.00 84 1006.6
20230128230715 28 48 5.0 9.0 0.00 0.00 0.00 81 1006.6
20230128230215 28 35 5.0 8.0 0.00 0.00 0.00 81 1006.6
20230128224715 28 54 4.0 6.0 0.00 0.00 0.00 80 1006.6
20230128224215 29 48 6.0 10.0 0.00 0.00 0.00 80 1006.6
20230128221215 31 69 7.0 12.0 0.00 0.00 0.00 74 1006.6
20230128220715 31 63 9.0 12.0 0.00 0.00 0.00 73 1006.6
20230128214715 33 86 2.0 5.0 0.00 0.00 0.00 72 1006.6
20230128214215 32 133 1.0 5.0 0.00 0.00 0.00 71 1006.6
20230128213715 32 88 2.0 3.0 0.00 0.00 0.00 71 1006.6
20230128213215 32 88 3.0 5.0 0.00 0.00 0.00 72 1006.6
20230128211715 32 103 3.0 3.0 0.00 0.00 0.00 73 1006.6
20230128210215 32 141 3.0 6.0 0.00 0.00 0.00 74 1006.6
20230128204715 30 136 2.0 6.0 0.00 0.00 0.00 75 1006.7
20230128204215 30 66 1.0 3.0 0.00 0.00 0.00 76 1006.7
20230128203215 30 44 4.0 8.0 0.00 0.00 0.00 77 1006.7
20230128201715 30 63 5.0 7.0 0.00 0.00 0.00 77 1006.5
20230128200214 30 65 6.0 12.0 0.00 0.00 0.00 75 1007.1
20230128193216 31 56 6.0 12.0 0.00 0.00 0.00 71 1007.2
20230128191716 31 89 4.0 9.0 0.00 0.00 0.00 71 1008.0
20230128191215 31 96 3.0 7.0 0.00 0.00 0.00 70 1008.0
20230128190715 31 77 5.0 8.0 0.00 0.00 0.00 69 1008.0
20230128183715 32 63 5.0 10.0 0.00 0.00 0.00 70 1008.5
20230128181215 32 71 3.0 6.0 0.00 0.00 0.00 70 1008.6
20230128180715 31 59 5.0 8.0 0.00 0.00 0.00 71 1008.7
20230128174215 32 57 4.0 9.0 0.00 0.00 0.00 68 1008.8
20230128171714 31 30 6.0 10.0 0.00 0.00 0.00 69 1009.3
20230128171214 31 42 2.0 7.0 0.00 0.00 0.00 69 1009.3
20230128163714 29 46 2.0 6.0 0.00 0.00 0.00 70 1009.1
20230128161715 29 50 4.0 7.0 0.00 0.00 0.00 71 1009.1
20230128160216 28 336 6.0 12.0 0.00 0.00 0.00 71 1008.7
20230128154715 28 4 5.0 10.0 0.00 0.00 0.00 70 1008.3